Cosmos 2082 Rocket - Orbit

View from above orbital plane
View from above orbital plane
View from above satellite
View from above satellite

Ground track
Ground track

The orbit data is extracted from the following two-line orbital elements,

1 20625U 90046B   13137.84723484  .00000331  00000-0  19727-3 0  4417
2 20625 071.0009 038.8728 0015428 219.0418 172.9347 14.14470897186941
Epoch (UTC): 17 May 2013 20:20:01
Eccentricity: 0.0015428
inclination: 71.0009°
perigee height: 833 km
apogee height: 855 km
right ascension of ascending node: 38.8728°
argument of perigee: 219.0418°
revolutions per day: 14.14470897
mean anomaly at epoch: 172.9347°
orbit number at epoch: 18694

The dashed part of the orbit path shows where the satellite is in the earth's shadow,  

Developed and maintained by Chris Peat, Heavens-Above GmbH. Please read the updated FAQ before sending e-mail. Imprint. DLR